Location: Biltmore Gardens
(41.6070°N, 83.4666°W)
Time: 14:49:57
(UTC+00:00)

Cosmos 1892 - Pass Details

Date: 14 July 2020
Orbit: 505 x 524 km, 82.5° (Epoch: 12 August)

Event Time Altitude Azimuth Distance (km) Brightness Sun altitude
Exits shadow 02:56:20 24° 186° (S) 1,077 3.9 -16.3°
Maximum altitude 02:58:30 88° 94° (E) 518 2.6 -16.6°
Drops below altitude 10° 03:02:20 10° 8° (N) 1,748 6.0 -17.0°
Sets 03:04:29 0° 9° (N) 2,643 7.0 -17.3°
